Theta_e
317 310 314 321 319 319 323 326 327 330 330 331 333 332 341 349 351 361 341 349 354 348 346 344 344 343 343 348 348 342 337 335 333 332 331 331 333 336 331 332 336 339 340 339 337 337 337 335 327
311 318 320 320 318 322 325 326 328 329 330 332 332 332 332 356 356 353 346 354 352 348 346 344 343 341 341 346 346 341 338 335 334 333 331 331 331 333 333 334 335 338 339 338 337 335 333 331 327
311 316 317 314 316 322 324 327 329 330 330 334 334 331 337 359 353 343 341 357 351 348 347 345 342 340 340 344 347 342 339 335 335 334 332 331 331 335 337 337 337 337 338 336 336 336 332 327 326
317 314 313 314 317 321 324 325 326 327 327 333 333 333 347 355 352 347 358 356 352 349 348 344 341 339 339 343 347 344 341 336 336 336 333 332 332 338 342 341 338 338 337 337 337 336 330 326 325
317 314 312 314 316 318 321 324 325 326 326 328 333 334 359 355 357 358 358 357 351 351 349 343 340 338 339 343 347 345 342 337 338 338 334 333 332 336 341 344 343 341 338 333 329 329 328 326 326
317 311 311 313 315 318 320 321 322 323 324 325 333 332 351 353 358 359 358 357 352 352 351 342 340 338 339 344 347 345 343 339 340 340 336 334 332 334 339 342 343 341 336 332 330 330 328 327 327
319 315 310 311 313 315 318 319 322 322 321 322 331 331 345 353 354 359 359 357 356 355 350 343 341 339 340 344 347 345 343 341 342 342 339 336 334 334 338 341 340 338 338 336 333 331 329 328 327
318 316 317 314 312 312 315 316 319 321 321 323 330 329 329 342 353 357 357 356 356 356 350 343 343 342 345 347 346 345 344 344 343 344 341 338 335 333 339 339 339 336 335 334 331 331 331 330 328
320 320 319 318 318 316 315 316 317 319 320 323 323 323 327 348 352 355 355 357 358 356 352 345 347 347 347 347 346 345 345 345 345 345 342 339 335 335 338 338 336 335 335 335 332 329 328 328 328
320 321 321 319 318 317 317 318 319 321 320 320 321 322 343 350 352 352 354 356 356 353 351 349 347 347 348 348 346 344 345 345 346 345 340 338 333 331 333 335 339 341 337 333 333 331 327 325 327
318 322 322 321 320 320 320 320 320 320 317 318 319 320 323 340 342 352 353 354 356 351 349 348 347 347 347 347 343 343 342 343 344 341 338 334 338 341 339 343 341 339 338 335 332 331 329 325 323
313 317 320 320 321 321 319 319 320 319 319 318 318 319 319 323 336 337 338 355 355 351 348 346 344 342 344 344 341 341 340 338 338 339 336 333 339 342 342 342 342 342 342 336 337 339 338 332 334
317 315 316 317 318 319 320 321 320 319 319 319 318 319 318 317 328 336 339 350 355 353 348 346 344 341 346 344 337 340 338 337 336 340 341 336 340 343 343 341 344 344 344 343 342 342 341 337 336
316 318 319 318 318 320 321 321 319 320 320 321 319 320 321 333 336 338 340 342 356 355 349 347 344 346 349 345 341 342 343 341 342 343 343 337 341 343 345 345 346 347 346 346 347 345 342 344 343
319 318 318 319 321 320 320 321 321 319 319 319 319 317 319 324 325 327 339 355 356 353 350 347 346 344 345 348 344 345 345 344 345 345 346 344 347 348 348 347 344 347 345 346 345 345 343 343 341
321 317 317 318 318 320 319 322 322 320 319 319 319 318 319 318 319 321 325 355 354 350 346 343 339 338 334 354 347 346 349 346 348 348 347 348 347 353 349 348 347 346 345 344 343 342 340 340 336
320 321 317 317 318 320 319 320 320 320 320 319 318 318 318 316 317 320 324 349 352 349 344 344 341 345 349 355 352 347 353 350 351 352 350 350 349 351 348 347 346 345 344 343 342 341 339 334 331
323 320 318 318 318 319 319 320 320 321 321 320 319 318 318 317 317 319 342 340 340 343 347 349 345 351 351 353 353 354 354 352 352 351 352 351 351 350 348 347 345 344 342 340 339 338 331 329 329
320 320 318 317 318 318 319 319 320 320 320 319 319 319 318 319 317 319 353 344 342 342 338 338 343 337 354 355 351 352 351 352 352 351 351 352 350 349 348 346 344 338 336 332 329 329 330 328 324
317 321 321 319 318 318 318 318 320 320 321 320 319 319 319 319 318 318 349 349 337 341 338 343 352 351 338 348 351 352 353 352 351 350 350 349 349 348 346 343 338 336 332 328 329 329 329 327 325
312 318 320 319 319 319 319 319 319 320 321 321 321 320 320 320 319 319 342 348 341 338 337 336 338 336 337 333 349 352 353 352 352 351 350 349 348 346 343 339 337 333 329 328 331 328 329 334 331
312 313 316 318 319 319 318 320 319 320 322 322 321 318 320 320 320 320 328 344 337 337 336 337 342 342 348 350 351 353 352 352 351 350 348 345 343 342 339 337 335 331 330 330 325 331 335 333 334
318 315 314 316 316 317 319 318 319 320 321 322 321 320 319 320 320 320 322 343 340 337 331 327 331 338 349 351 353 354 352 351 350 346 343 342 341 338 337 335 328 332 327 330 334 334 332 332 329
317 316 316 316 317 318 317 319 319 319 321 322 321 320 320 319 321 321 322 340 339 336 334 333 338 340 348 350 351 353 351 348 345 342 340 339 338 336 334 333 334 335 335 334 333 332 330 327 323
316 316 323 322 321 320 315 317 318 319 321 322 321 321 320 319 319 321 325 339 352 349 337 340 344 350 352 351 352 352 349 347 343 338 335 334 335 336 336 336 335 333 332 330 329 325 322 321 321
317 315 322 328 321 318 315 317 317 318 319 321 322 320 320 319 319 320 325 335 354 353 350 351 350 351 353 352 352 348 346 342 338 336 335 334 334 333 332 332 329 326 324 324 323 323 323 323 322
321 319 316 320 321 323 318 317 320 318 319 320 320 321 322 319 319 316 325 331 354 352 348 347 350 350 352 350 347 344 342 338 337 335 334 332 331 330 328 326 324 323 322 322 321 322 322 323 321
320 317 319 321 326 325 326 325 319 320 319 320 321 319 320 320 319 324 342 348 349 345 344 344 344 344 344 341 339 338 337 335 334 331 329 329 327 325 324 323 322 321 321 321 320 320 319 319 320
322 320 319 320 322 327 326 324 320 320 321 319 320 319 321 328 344 344 344 344 344 343 341 340 339 338 336 334 334 334 332 331 329 328 326 324 323 322 322 321 320 319 318 318 318 318 316 316 315
319 321 321 323 320 321 325 321 322 322 323 320 324 326 333 343 342 341 341 341 341 340 338 336 335 333 332 331 330 329 328 325 322 321 321 320 319 320 319 318 318 317 317 317 315 314 313 313 313
Wind_Speed
16 12 7 4 2 2 6 9 12 21 16 6 5 9 10 7 9 5 30 27 30 38 30 27 28 27 25 23 22 22 21 20 19 18 18 19 19 18 19 18 16 15 13 11 10 9 7 6 7
12 7 9 4 4 5 7 11 20 22 16 4 8 6 7 6 5 2 14 34 37 41 31 27 27 27 25 24 23 23 22 21 20 19 19 19 19 19 19 17 15 14 12 10 8 6 5 5 5
11 5 1 5 4 12 6 9 18 20 10 3 2 4 6 9 12 12 6 32 37 39 32 27 26 26 25 25 24 24 23 22 21 20 19 19 19 20 19 17 14 13 11 8 7 5 5 5 5
5 2 4 2 11 9 18 17 24 21 21 3 5 5 8 16 20 18 37 33 39 36 30 28 25 26 25 25 26 25 24 24 22 19 19 19 19 19 18 16 14 13 11 9 7 5 4 4 4
7 3 4 6 14 10 14 19 24 20 15 9 5 3 9 14 41 47 39 31 36 33 29 29 27 26 26 26 27 26 25 23 22 20 19 19 19 19 17 15 13 11 10 8 7 6 6 5 4
3 3 2 12 15 11 18 21 20 17 15 12 2 6 7 30 36 36 37 30 34 34 30 32 28 27 26 26 27 26 25 23 21 19 18 18 19 19 17 14 11 10 9 7 6 6 5 4 4
7 3 7 9 11 11 19 18 18 17 12 10 2 7 11 22 35 38 37 33 35 31 32 33 30 27 27 26 26 25 24 22 20 18 17 17 17 17 15 13 10 8 7 6 5 5 5 5 5
2 3 9 10 15 18 17 6 16 20 15 12 10 5 7 11 37 37 37 37 40 35 33 35 32 29 28 27 25 23 21 19 18 17 16 15 15 15 14 12 9 7 6 5 4 4 4 4 5
6 5 13 20 19 15 12 6 9 7 14 3 2 4 1 35 36 34 32 34 35 34 36 37 32 28 28 26 23 22 19 17 17 16 15 15 15 14 12 9 6 5 4 4 4 4 5 6 7
8 12 22 16 11 11 13 12 15 2 3 2 4 6 18 34 29 22 23 28 33 34 34 33 30 27 25 23 26 24 21 20 18 18 16 14 14 13 11 9 7 6 5 6 6 6 6 8 9
5 23 15 9 19 21 21 21 13 11 4 6 8 5 8 6 11 17 23 32 38 40 35 33 30 29 24 23 25 25 23 20 17 16 16 15 13 10 12 9 10 9 10 8 8 7 8 8 8
14 20 19 15 17 16 11 8 12 8 8 12 12 7 8 8 9 9 9 20 19 32 34 36 33 30 23 21 23 21 21 20 20 17 15 17 17 16 12 13 15 13 10 10 9 9 6 4 2
25 13 13 20 23 26 20 18 15 18 10 3 9 7 9 8 10 18 22 19 42 37 36 31 29 33 22 21 22 20 22 21 21 19 15 19 17 14 16 14 18 17 11 13 11 13 13 8 7
8 14 21 21 22 24 24 15 10 21 8 4 5 5 1 9 9 8 10 9 29 32 35 43 39 26 14 29 27 25 22 22 24 21 20 21 19 15 17 13 8 13 16 18 10 12 14 10 6
16 20 19 23 25 22 11 21 29 10 8 8 7 8 7 6 6 7 6 22 33 35 42 48 37 46 25 16 23 26 24 25 26 26 22 21 19 12 20 14 11 9 14 20 14 6 10 7 2
9 10 19 26 21 15 12 30 22 11 8 10 9 8 8 10 10 12 7 31 38 42 44 32 28 27 33 29 27 28 28 28 27 29 27 23 21 15 19 13 10 9 11 12 12 7 4 4 1
9 19 22 17 12 16 18 32 12 10 15 11 9 10 10 10 10 16 10 34 42 48 44 37 35 35 32 25 27 26 15 25 24 18 28 25 22 15 15 15 13 13 11 11 9 6 5 3 1
21 22 16 17 13 12 17 24 17 15 17 17 15 11 11 11 11 11 19 36 42 47 49 49 38 37 32 20 17 18 12 18 16 15 25 26 20 17 16 11 11 11 10 8 6 6 5 3 6
17 13 15 18 16 10 16 26 22 15 15 12 18 17 15 17 8 18 29 38 35 35 35 34 32 26 14 25 27 28 15 15 14 15 19 22 19 14 12 11 8 9 8 11 11 8 3 2 4
22 21 22 18 14 17 23 24 16 15 21 18 11 21 18 19 11 9 29 36 37 45 38 37 34 36 19 17 32 26 22 18 16 15 14 14 14 12 12 12 13 9 12 13 7 3 3 3 4
24 23 23 23 20 21 17 17 25 13 19 20 18 12 21 22 17 11 20 31 33 33 43 41 41 38 40 55 37 25 20 18 17 17 16 13 13 11 10 10 11 12 8 7 2 5 7 4 1
23 19 20 20 20 19 18 13 16 22 17 20 21 11 22 21 16 16 16 25 36 38 42 39 43 41 36 34 27 31 20 20 18 22 19 17 15 15 12 11 12 11 8 4 7 8 5 1 1
20 20 23 22 18 16 29 7 12 15 21 19 20 16 12 19 19 16 14 34 40 39 42 39 45 45 32 25 31 27 27 21 27 26 24 23 19 17 15 14 20 16 15 14 9 4 3 2 3
16 12 19 17 12 18 22 16 14 16 20 19 21 17 12 9 15 17 15 29 40 38 39 40 33 31 29 36 34 32 34 31 31 30 28 25 23 19 16 15 15 15 14 10 10 3 1 1 2
11 10 1 6 13 12 20 17 16 14 17 22 24 17 11 11 11 17 19 20 30 34 41 39 34 31 36 34 31 33 35 35 35 31 25 26 22 19 14 14 12 9 9 6 5 4 2 3 3
11 13 6 6 11 15 19 16 12 25 24 7 16 13 11 14 12 17 18 22 30 37 40 36 32 32 30 28 26 34 35 34 31 26 25 22 20 15 13 13 12 11 11 9 7 5 4 1 2
4 19 15 13 15 6 12 14 9 21 23 20 11 16 18 10 10 12 18 20 32 35 33 37 34 31 27 27 32 31 29 29 26 25 22 19 17 19 15 13 13 12 11 8 6 11 5 3 4
15 8 9 4 5 10 7 6 15 15 22 20 16 11 13 14 11 16 18 22 33 39 37 36 36 35 34 31 32 29 31 30 26 24 20 21 18 17 16 14 12 10 8 7 7 7 7 7 6
4 6 8 4 5 4 4 11 11 10 16 20 17 12 18 15 21 20 19 26 34 38 37 36 37 37 34 32 32 32 29 28 25 25 23 23 20 17 16 14 12 11 11 10 9 9 12 11 11
6 10 7 5 6 6 5 10 7 10 18 11 12 10 20 25 24 23 21 22 30 34 34 34 36 35 34 33 31 31 30 31 30 29 26 22 20 16 16 14 11 9 11 12 13 12 13 13 14
Wind_Direction
277 267 277 281 44 168 240 248 258 280 285 283 88 83 123 107 150 204 185 202 174 168 169 166 155 151 151 152 154 155 152 148 145 142 141 137 134 130 131 134 135 137 139 133 122 120 123 121 117
274 279 234 275 160 234 248 243 257 260 263 341 41 34 47 70 83 104 153 172 163 164 169 169 158 153 153 155 157 159 157 154 152 150 149 147 144 140 140 141 144 147 148 145 141 124 118 120 118
272 230 140 167 216 226 249 245 255 267 299 207 87 72 85 119 107 146 201 146 152 158 169 169 162 156 156 158 161 163 162 159 158 156 156 154 151 148 147 146 148 152 154 154 151 142 132 134 134
263 300 311 215 245 233 242 265 269 288 300 317 123 72 75 142 149 150 140 154 157 156 169 169 167 163 160 162 166 168 167 164 163 161 162 160 158 155 152 151 151 152 153 154 154 151 145 147 149
248 269 220 230 250 253 262 247 261 274 281 268 137 143 99 127 134 139 147 152 154 159 170 170 173 167 165 166 168 170 171 168 166 166 166 165 164 164 160 157 156 156 159 164 165 162 162 163 163
279 158 242 228 251 243 245 257 261 273 284 287 81 127 114 135 131 141 146 151 160 165 172 173 176 171 169 168 170 172 172 171 170 168 171 172 170 170 168 166 166 165 166 164 161 163 165 171 182
224 246 223 250 259 258 247 248 252 253 258 263 177 133 153 145 149 147 148 149 161 169 174 176 175 175 171 171 172 174 174 171 172 173 176 175 174 174 172 171 170 170 167 166 169 171 179 186 200
249 231 251 239 242 253 256 254 240 254 244 234 178 166 166 162 153 148 149 152 165 173 177 178 177 175 170 171 172 173 173 174 175 176 177 176 176 176 175 174 174 171 171 177 185 194 207 216 222
248 235 240 239 239 240 287 280 274 235 234 121 82 99 176 148 149 150 154 148 154 168 179 180 177 172 169 168 170 171 173 177 177 179 180 176 176 177 180 178 173 179 192 205 208 212 224 231 236
200 220 232 232 248 258 266 273 275 255 167 132 71 52 113 139 149 159 164 159 162 165 162 169 176 171 168 166 170 173 174 179 182 182 181 181 177 180 181 188 196 211 224 223 231 235 239 243 248
242 233 240 244 238 260 267 279 289 307 254 179 164 180 177 154 158 170 178 173 174 162 153 172 173 165 168 178 175 173 175 176 181 188 186 174 176 177 183 189 207 222 230 225 240 235 244 247 249
246 245 247 259 270 273 268 300 298 310 241 204 176 168 211 161 184 205 191 196 135 148 154 161 169 164 168 177 176 174 172 174 179 186 181 176 177 200 198 200 222 232 237 213 224 224 229 206 186
228 239 243 239 250 263 271 269 273 278 276 228 169 173 211 202 200 208 232 152 149 147 154 152 174 156 167 178 180 183 177 178 185 185 184 184 184 199 200 205 226 229 227 227 226 242 244 245 260
271 244 239 240 242 240 252 264 256 264 267 252 247 200 225 175 177 203 205 159 156 144 155 159 174 144 171 189 183 186 185 188 184 186 186 186 183 197 197 202 204 223 227 236 168 102 154 140 139
251 256 267 254 240 247 232 251 242 251 271 217 249 231 189 195 199 203 222 98 131 136 139 150 155 157 164 211 191 186 197 196 190 194 191 183 179 190 194 196 210 184 159 163 178 169 164 186 201
285 264 246 248 244 245 212 248 242 241 245 233 227 238 195 211 217 230 204 129 132 136 143 154 164 184 166 206 199 195 203 203 193 203 200 192 178 189 183 173 167 179 169 164 182 204 202 228 249
249 243 238 247 230 230 219 243 229 213 222 233 227 219 216 215 219 206 199 149 142 143 150 159 165 181 184 176 196 194 204 202 194 190 202 196 192 187 186 182 187 206 206 217 226 204 217 148 359
227 234 244 250 233 227 240 258 244 201 212 221 218 213 210 224 210 191 128 143 151 154 158 157 159 176 185 189 186 188 180 166 184 186 192 191 188 193 201 210 221 214 213 189 177 181 134 80 329
269 248 252 243 248 254 232 243 245 212 214 224 212 212 212 222 197 183 130 136 141 158 162 154 162 173 187 201 199 206 178 170 164 180 177 178 178 190 212 210 183 160 152 153 146 126 9 23 95
260 263 271 275 266 233 244 251 250 218 212 222 213 208 208 217 202 166 136 147 154 162 165 163 167 172 173 194 221 205 190 170 162 162 167 169 182 188 171 147 141 149 158 154 144 21 100 91 130
253 243 252 259 275 281 273 263 250 230 217 210 223 202 208 209 202 173 144 146 162 163 166 172 179 182 187 207 213 196 181 166 146 154 165 161 151 149 136 131 152 155 140 168 264 122 114 91 24
253 259 263 255 245 255 257 260 264 228 223 211 209 197 211 207 195 187 143 152 160 170 173 174 179 180 186 192 190 193 167 153 159 152 148 154 163 158 156 156 149 141 144 213 127 134 116 79 61
268 267 254 262 265 261 256 248 265 240 213 206 197 211 197 209 199 184 154 156 169 170 170 159 170 186 176 179 190 172 164 172 159 153 152 154 155 160 160 157 136 131 154 133 140 163 145 130 127
281 301 274 274 266 257 247 232 247 252 211 199 196 211 211 200 196 185 156 152 160 165 162 166 167 172 182 186 185 176 166 156 151 158 159 159 155 154 159 156 151 161 150 151 155 167 176 146 94
241 221 270 254 236 239 238 244 227 235 250 195 199 208 205 198 179 174 152 140 154 160 166 169 180 183 180 173 180 180 167 167 165 160 155 156 155 155 147 149 150 135 115 115 118 134 87 38 43
241 214 188 239 225 241 239 233 217 232 249 252 185 201 190 196 175 170 150 139 146 148 157 159 149 155 165 173 164 160 163 159 156 158 155 155 160 155 137 133 120 112 109 100 82 52 93 217 357
274 252 223 218 256 302 246 244 266 232 242 251 215 202 199 189 152 139 140 139 138 136 130 132 129 132 141 141 147 148 152 144 147 151 153 151 147 138 132 121 110 105 105 89 70 64 46 78 1
231 266 229 161 223 231 236 266 228 256 230 234 237 200 187 172 126 120 120 122 126 126 127 124 122 122 124 119 127 131 141 149 145 146 143 142 137 133 129 122 112 96 90 78 45 41 24 12 27
315 232 240 312 174 218 243 236 244 260 283 233 237 226 180 123 114 116 118 121 120 121 122 120 118 118 115 118 122 129 132 132 133 131 136 134 131 128 119 112 103 91 77 52 40 43 56 37 23
273 267 263 233 255 219 156 250 296 323 326 289 232 246 130 121 118 121 121 119 117 116 120 121 119 114 114 121 124 125 129 129 126 126 125 125 118 117 107 96 86 74 78 76 78 55 34 19 7